Погода в Аурихе

Германия     53°28′26″N   7°29′04″E
темп.,
°C
ветер,
м/с
пор.,
м/с
влажн.,
%
обл.,
%
осадки,
мм/ч
давл.,
гПа
погр.,
м
4 июля, пн
пн423:00+13з36905 0.3 1018113
02:00+12зюз34920 0.3 101864
05:00+11зюз38945 0.0 1018135
08:00+14юз4886100 0.0 1018325
11:00+18зюз787092 0.3 10191196
14:00+20з795385 0.6 10181598
17:00+19з7957100 0.0 10191132
20:00+16з587041 0.0 1019895
5 июля, вт
вт523:00+12з34890 0.0 102064
02:00+11юз369412 0.0 102095
05:00+12юз4985100 0.0 1020199
08:00+14юз4982100 0.1 1020300
11:00+19зюз685974 0.1 10211419
14:00+19зсз795764 0.7 10211610
17:00+18зсз785819 0.1 10221478
20:00+15сз687287 0.3 10221063
6 июля, ср
ср623:00+11сз35865 0.0 102389
02:00+11з3484100 0.0 102372
05:00+11зюз358745 0.0 102384
08:00+15з466776 0.0 10231004
11:00+18зюз576084 0.0 10231324
14:00+17юз4964100 0.0 10211199
17:00+17зюз61072100 0.0 1020936
20:00+15зюз51098100 1.1 1018611
7 июля, чт
чт723:00+16з51096100 0.6 1018547
02:00+16зюз61196100 1.2 1016646
05:00+15сз61293100 0.9 1016623
08:00+15сз71292100 1.2 1017772
11:00+17ссз91171100 0.5 10191223
14:00+17ссз101161100 0.6 10211532
17:00+16сз81269100 0.2 10231504
20:00+16ссз91260100 0.3 10241440
8 июля, пт
пт823:00+14ссз7126923 0.0 1025740
02:00+14ссз611727 0.1 1026511
05:00+13ссз5107624 0.0 1027401
08:00+16ссз6870100 0.1 10281109
11:00+17ссз5877100 0.1 1028863
14:00+19сз797950 0.7 1029967
17:00+19сз8106926 0.3 10291134
20:00+17сз698160 0.6 1028916